Ottumwa, IA

7:43 PM CDT on April 22, 2018 (GMT -0500)
Ottumwa Industrial

Weather History for KOTM - February, 2014

Change the Weather History Date:

Friday, February 21, 2014

  Actual Average Record
Temperature  
Mean Temperature 32 °F 29 °F  
Max Temperature 40 °F 38 °F 70 °F (2017)
Min Temperature 23 °F 20 °F -7 °F (1963)
Degree Days  
Heating Degree Days 33 36  
Month to date heating degree days 1018 821  
Since 1 July heating degree days 5182 4643  
Cooling Degree Days 0 0  
Month to date cooling degree days 0 0  
Year to date cooling degree days 0 0  
Moisture  
Dew Point 21 °F    
Average Humidity 66    
Maximum Humidity 85    
Minimum Humidity 47    
Precipitation  
Precipitation T in 0.06 in 1.16 in (1997)
Month to date precipitation 1.20 0.84  
Year to date precipitation 1.32 1.74  
Sea Level Pressure  
Sea Level Pressure 29.73 in    
Wind  
Wind Speed 14 mph (West)    
Max Wind Speed 25 mph    
Max Gust Speed 33 mph    
Visibility 8 miles    
Events Snow    
T = Trace of Precipitation, MM = Missing Value Source: NWS Daily Summary

Daily Weather History Graph

Daily Weather History Graph

Search for Another Location

Airport or City:

Astronomy

Feb. 21, 2014 Rise Set
Actual Time 6:55 AM CST 5:51 PM CST
Civil Twilight 6:28 AM CST 6:19 PM CST
Nautical Twilight 5:56 AM CST 6:51 PM CST
Astronomical Twilight 5:24 AM CST 7:23 PM CST
Moon No Moon Rise 10:16 AM CST (2/21)
Length of Visible Light 11h 51m
Length of Day
10h 55m
Waning Gibbous, 60% of the Moon is Illuminated
Feb 21
Waning Gibbous
Feb 22
Last Quarter
Mar 1
New
Mar 8
First Quarter
Mar 16
Full

Hourly Weather History & Observations

Time (CST) Temp. Windchill Dew Point Humidity Pressure Visibility Wind Dir Wind Speed Gust Speed Precip Events Conditions
12:01 AM 28.9 °F 14.8 °F 25.0 °F 85% 29.56 in 2.0 mi West 24.2 mph 32.2 mph 0.00 in Snow Light Snow
12:21 AM 28.9 °F 15.4 °F 25.0 °F 85% 29.57 in 1.8 mi West 21.9 mph 29.9 mph 0.00 in Snow Light Snow
12:25 AM 28.9 °F 16.1 °F 25.0 °F 85% 29.57 in 2.0 mi West 19.6 mph 28.8 mph 0.00 in Snow Light Snow
12:31 AM 28.0 °F 13.6 °F 24.1 °F 85% 29.57 in 2.5 mi West 24.2 mph 32.2 mph 0.00 in Snow Light Snow
12:38 AM 28.0 °F 14.3 °F 23.0 °F 81% 29.57 in 3.0 mi West 21.9 mph 32.2 mph 0.00 in Snow Light Snow
12:45 AM 28.0 °F - 23.0 °F 81% 29.57 in 2.0 mi North - - 0.00 in Snow Light Snow
12:53 AM 28.0 °F - 23.0 °F 81% 29.60 in 2.5 mi North - - 0.00 in Snow Light Snow
1:11 AM 28.0 °F - 21.9 °F 78% 29.58 in 3.0 mi North - - 0.00 in Snow Light Snow
1:53 AM 27.0 °F - 21.0 °F 78% 29.62 in 8.0 mi North - - 0.00 in   Overcast
2:53 AM 27.0 °F - 18.0 °F 69% 29.66 in 10.0 mi North - - N/A   Overcast
3:51 AM 26.6 °F - 15.8 °F 64% 29.66 in 10.0 mi North - - N/A   Overcast
3:53 AM 26.1 °F - 16.0 °F 66% 29.69 in 10.0 mi North - - N/A   Mostly Cloudy
4:53 AM 24.1 °F - 14.0 °F 65% 29.73 in 10.0 mi North - - N/A   Clear
5:53 AM 24.1 °F - 14.0 °F 65% 29.75 in 10.0 mi North - - N/A   Clear
6:53 AM 23.0 °F - 14.0 °F 68% 29.74 in 10.0 mi North - - N/A   Clear
7:53 AM 24.1 °F 9.8 °F 14.0 °F 65% 29.79 in 10.0 mi West 19.6 mph - N/A   Clear
8:53 AM 27.0 °F 14.7 °F 14.0 °F 58% 29.79 in 10.0 mi West 16.1 mph 26.5 mph N/A   Clear
9:53 AM 30.0 °F 17.5 °F 14.0 °F 51% 29.81 in 10.0 mi West 19.6 mph - N/A   Clear
10:53 AM 33.1 °F 20.3 °F 15.1 °F 48% 29.80 in 10.0 mi West 24.2 mph 29.9 mph N/A   Clear
11:53 AM 35.1 °F 24.8 °F 19.0 °F 52% 29.80 in 10.0 mi West 17.3 mph - N/A   Clear
12:53 PM 37.0 °F 26.2 °F 21.0 °F 52% 29.78 in 10.0 mi WSW 21.9 mph 28.8 mph N/A   Clear
1:53 PM 37.9 °F 29.6 °F 21.9 °F 53% 29.77 in 10.0 mi WSW 13.8 mph - N/A   Mostly Cloudy
2:53 PM 39.9 °F 32.1 °F 23.0 °F 51% 29.79 in 10.0 mi West 13.8 mph - N/A   Overcast
3:53 PM 39.9 °F 32.9 °F 23.0 °F 51% 29.80 in 10.0 mi WNW 11.5 mph - N/A   Overcast
4:53 PM 37.9 °F 32.1 °F 27.0 °F 65% 29.81 in 10.0 mi North 8.1 mph - N/A   Overcast
5:53 PM 35.1 °F 29.3 °F 25.0 °F 67% 29.83 in 10.0 mi NNW 6.9 mph - N/A   Clear
6:53 PM 32.0 °F 28.7 °F 23.0 °F 69% 29.85 in 10.0 mi West 3.5 mph - N/A   Clear
7:53 PM 30.0 °F - 24.1 °F 79% 29.86 in 10.0 mi Calm Calm - N/A   Clear
8:53 PM 30.9 °F 27.5 °F 24.1 °F 76% 29.88 in 10.0 mi SSW 3.5 mph - N/A   Clear
9:53 PM 30.0 °F 25.2 °F 24.1 °F 79% 29.90 in 10.0 mi West 4.6 mph - N/A   Mostly Cloudy
10:53 PM 28.9 °F 23.9 °F 24.1 °F 82% 29.89 in 10.0 mi WSW 4.6 mph - N/A   Clear
11:53 PM 28.9 °F 22.8 °F 23.0 °F 78% 29.90 in 10.0 mi West 5.8 mph - N/A   Clear